STARLINK-5051 (53916 NORAD) Tracking and Keplerian Element Data

This shows tracking and keplerian element data for the satellite.

Feedback or suggestion? Click here.




ElementValue
Catalog53916
NameSTARLINK-5051
Epoch Orbit945
Epoch Day325.25001157
Epoch Year2022
RAAN329.4123
Inclination53.2183
Eccentricity0.0003665
Argument of Perigee11.1464
Mean Anonmoly144.0512
Mean Motion15.7316289
Decay Rate0.00027503
L11 53916U 22119AG 22325.25001157 .00027503 00000+0 20001-3 0 9996
L22 53916 53.2183 329.4123 0003665 11.1464 144.0512 15.73162890 9456



Live tracking and technical data element details for STARLINK-5051 (NORAD 53916). STARLINK-5051 can be tracked NOW for your location showing map with azimuth and elevation plus other details from your city location.







IsCatalogInMostPopularTable: catalog: 53916, numindb: 1
Update: records affected: 1



GetName: 53916 STARLINK-5051

Hit Count: updated at: Mon, 28 Nov 2022 22:40:20 GMT